Location: Newark
(20.0000°S, 47.0000°E)
Time: 06:30:02
(UTC+00:00)

Envisat - Pass Details

Date: 25 June 2019
Orbit: 764 x 766 km, 98.1° (Epoch: 13 October)

Event Time Altitude Azimuth Distance (km) Brightness Sun altitude
Rises 02:15:35 0° 57° (ENE) 3,220 7.8 -16.4°
Reaches altitude 10° 02:19:22 10° 87° (E) 2,304 6.7 -15.5°
Maximum altitude 02:21:19 12° 110° (ESE) 2,157 6.1 -15.1°
Drops below altitude 10° 02:23:16 10° 132° (SE) 2,313 5.8 -14.7°
Sets 02:27:04 0° 161° (SSE) 3,249 6.2 -13.8°
